Regional Weather Roundup
Issued by NWS Cleveland, OH

Home | Current Version | Previous Version | Text Only | Print | Product List | Glossary Off
Versions: 1 2 3 4 5 6 7 8 9 10 11 12 13 14 15 16 17 18 19 20 21 22 23 24 25 26 27 28 29 30 31 32 33 34 35 36 37 38 39 40 41 42 43 44 45 46 47 48 49 50

000
ASUS41 KCLE 201902
RWRCLE
OHIO REGIONAL WEATHER ROUNDUP
NATIONAL WEATHER SERVICE CLEVELAND, OH
200 PM EST FRI JAN 20 2017

NOTE: "FAIR" INDICATES FEW OR NO CLOUDS BELOW 12,000 FEET WITH NO
SIGNIFICANT WEATHER AND/OR OBSTRUCTIONS TO VISIBILITY.

OHZ001>008-015>018-024>027-034-035-043-044-202000-
   NORTHWEST OHIO

CITY           SKY/WX    TMP DP  RH WIND       PRES   REMARKS
DEFIANCE       CLOUDY    43  42  97 W6        29.65S FOG
FINDLAY        CLOUDY    52  48  86 SW12      29.64S FOG
TOLEDO EXPRESS CLOUDY    43  43 100 W10       29.65R FOG
TOLEDO EXEC    CLOUDY    45  45 100 W12       29.66R FOG
LIMA           CLOUDY    54  53  97 W16       29.65S
$$

OHZ009>014-019>023-028>033-038-089-202000-
   NORTHEAST OHIO

CITY           SKY/WX    TMP DP  RH WIND       PRES   REMARKS
CLE-HOPKINS    DRIZZLE   52  48  86 S8        29.68R FOG
CLE-LAKEFRONT  CLOUDY    51  49  92 S12       29.64S FOG
CUY CO. ARPT   CLOUDY    52  50  93 SW12      29.66S FOG
LORAIN-ELYRIA  LGT RAIN  51  48  89 W14       29.65S FOG
ASHTABULA      CLOUDY    46  46 100 S9        29.68S
AKRON-CANTON   CLOUDY    53  49  86 SW13      29.67S
WOOSTER        CLOUDY    53  51  93 SW12      29.67S
MANSFIELD      CLOUDY    55  51  86 SW13G23   29.65R
YOUNGSTOWN     LGT RAIN  49  47  93 SW6       29.69R FOG
$$

OHZ042-051>053-060>062-070>072-077>081-202000-
  SOUTHWEST OHIO

CITY           SKY/WX    TMP DP  RH WIND       PRES   REMARKS
CINC-COVINGTON CLOUDY    59  51  75 SW9       29.70S
CINC-LUNKEN    PTSUNNY   60  52  74 SW10      29.71F
HAMILTON       CLOUDY    59  52  77 SW8       29.70F
DAYTON         CLOUDY    55  50  83 SW18      29.69R
WRIGHT-PAT AFB CLOUDY    58  50  75 SW16G23   29.68R
DAYTON GENERAL CLOUDY    57  51  80 SW12      29.68S
WILMINGTON     CLOUDY    57  52  83 SW15      29.69S
$$

OHZ036-037-039>041-045>050-054>059-063>069-073>076-082>088-202000-
  CENTRAL AND SOUTHEAST OHIO

CITY           SKY/WX    TMP DP  RH WIND       PRES   REMARKS
COLUMBUS       CLOUDY    60  52  74 SW14      29.68F
OSU AIRPORT    CLOUDY    59  52  77 SW20G28   29.67F
BOLTON FIELD   NOT AVBL
RICKENBACK AFB   N/A     58  53  82 SW10      29.69S
NEWARK         CLOUDY    59  51  75 SW10      29.68S
MARION         LGT RAIN  54  52  93 SW14      29.66S FOG
LANCASTER      CLOUDY    61  52  72 SW12G22   29.70S
ZANESVILLE     CLOUDY    59  51  75 SW8G17    29.69F
NEW PHILLY     NOT AVBL
$$




USA.gov is the U.S. government's official web portal to all federal, state and local government web resources and services.